This is the latest recevied weather packets stored in our database for station/object MB7UIK. If no packets are shown the sender has not sent any weather packets the latest 1 day(s).
| Time | Temp. | Humidity | Pressure | Rain* | Wind** | Luminosity | Snow |
|---|---|---|---|---|---|---|---|
| 1778047364 | 9.44° C | 100% | 1011.1 hPa | 0 mm | 2.24 m/s, 346° | - | - |
| 1778047332 | 9.44° C | 100% | 1011.1 hPa | 0 mm | 2.24 m/s, 346° | - | - |
| 1778047306 | 9.44° C | 100% | 1011.2 hPa | 0 mm | 1.34 m/s, 343° | - | - |
| 1778047246 | 9.44° C | 100% | 1011.1 hPa | 0 mm | 2.24 m/s, 351° | - | - |
| 1778047186 | 9.44° C | 100% | 1011.1 hPa | 0 mm | 2.24 m/s, 338° | - | - |
| 1778047126 | 9.44° C | 100% | 1011.1 hPa | 0 mm | 3.58 m/s, 14° | - | - |
| 1778047066 | 9.44° C | 100% | 1011.1 hPa | 0 mm | 4.02 m/s, 360° | - | - |
| 1778047032 | 9.44° C | 100% | 1011.1 hPa | 0 mm | 4.02 m/s, 360° | - | - |
| 1778047006 | 9.44° C | 100% | 1011.1 hPa | 0 mm | 2.68 m/s, 21° | - | - |
| 1778046946 | 9.44° C | 100% | 1011.1 hPa | 0 mm | 2.24 m/s, 329° | - | - |
| 1778046886 | 9.44° C | 100% | 1011 hPa | 0 mm | 1.34 m/s, 322° | - | - |
| 1778046825 | 9.44° C | 100% | 1011 hPa | 0 mm | 2.68 m/s, 351° | - | - |
| 1778046765 | 9.44° C | 100% | 1011.1 hPa | 0 mm | 1.34 m/s, 328° | - | - |
| 1778046732 | 9.44° C | 100% | 1011.1 hPa | 0 mm | 1.34 m/s, 328° | - | - |
| 1778046704 | 9.44° C | 100% | 1011.1 hPa | 0 mm | 1.34 m/s, 15° | - | - |
| 1778046645 | 9.44° C | 100% | 1011.1 hPa | 0 mm | 2.24 m/s, 320° | - | - |
| 1778046585 | 9.44° C | 100% | 1011.1 hPa | 0 mm | 1.34 m/s, 343° | - | - |
| 1778046525 | 9.44° C | 100% | 1011.1 hPa | 0 mm | 1.34 m/s, 349° | - | - |
| 1778046465 | 9.44° C | 100% | 1011.1 hPa | 0 mm | 1.34 m/s, 16° | - | - |
| 1778046433 | 9.44° C | 100% | 1011.1 hPa | 0 mm | 1.34 m/s, 16° | - | - |
| 1778046405 | 9.44° C | 100% | 1011.1 hPa | 0 mm | 0.89 m/s, 348° | - | - |
| 1778046345 | 9.44° C | 100% | 1011.1 hPa | 0 mm | 1.34 m/s, 9° | - | - |
| 1778046285 | 9.44° C | 100% | 1011.1 hPa | 0 mm | 1.79 m/s, 13° | - | - |
| 1778046224 | 9.44° C | 100% | 1011.1 hPa | 0 mm | 3.13 m/s, 19° | - | - |
| 1778046166 | 9.44° C | 100% | 1011.1 hPa | 0 mm | 3.58 m/s, 334° | - | - |
* Rain latest hour (hover to see other rain measurements)
** Current wind speed in m/s (hover to see current wind gust speed)